Probability
0 0 0 0 0 0 0 0 0 0 0 0 0 0 0 0 0 0 0 0 0 0 0 0 0 0 0 0 0 0 0 0 0 0 0 0 0 0 0 0 0 0 0 0 0 0 0 0 0
0 0 0 0 0 0 0 0 0 0 0 0 0 0 0 0 0 0 0 0 0 0 0 0 0 0 0 0 0 0 0 0 0 0 0 0 0 0 0 0 0 0 0 0 0 0 0 0 1
0 0 0 0 0 0 0 0 0 0 0 0 0 0 0 0 0 0 0 0 0 0 0 0 0 0 0 0 1 1 0 0 0 0 0 0 0 0 0 0 0 0 0 0 0 0 1 2 2
0 0 0 0 0 0 0 0 0 0 0 0 0 0 0 0 0 0 0 0 0 0 0 0 0 0 0 0 1 1 0 0 0 0 0 0 0 0 0 0 0 0 0 0 0 1 3 5 7
0 0 0 0 0 0 0 0 0 0 0 0 0 0 0 0 0 0 0 0 0 0 0 0 0 0 0 0 1 1 0 0 0 0 0 0 0 0 0 0 0 1 1 0 1 2 5 9 12
0 0 0 0 0 0 0 0 0 0 0 0 0 0 0 0 0 0 0 0 0 0 0 0 0 0 0 0 0 0 0 0 0 0 0 0 0 0 0 0 1 2 2 1 1 4 9 14 17
0 0 0 0 0 0 0 0 0 0 0 0 0 0 0 0 0 0 0 0 0 0 0 0 0 0 0 0 0 0 0 0 0 0 0 0 0 0 0 0 1 3 4 5 4 7 15 23 23
0 0 0 0 0 0 0 0 0 0 0 0 0 0 0 0 0 0 0 0 0 0 0 0 0 0 0 0 0 0 0 0 0 0 0 0 0 0 0 0 1 4 9 11 10 12 19 23 20
0 0 0 0 0 0 0 0 0 0 0 0 0 0 0 0 0 0 0 0 0 0 0 0 0 0 0 0 0 0 0 0 0 0 0 0 0 0 0 0 1 4 10 14 14 15 14 10 7
0 0 0 0 0 0 0 0 0 0 0 0 0 0 0 0 0 0 0 0 0 0 0 0 0 0 0 0 0 0 0 0 0 0 0 0 0 0 0 0 0 2 4 8 10 10 7 2 0
0 0 0 0 0 0 0 0 0 0 0 0 0 0 0 0 0 0 0 0 0 0 0 0 0 0 0 0 0 0 0 0 0 0 0 0 0 0 0 0 0 0 0 2 3 3 2 1 0
0 0 0 0 0 0 0 0 0 0 0 0 0 0 0 0 0 0 0 0 0 0 0 0 0 0 0 0 0 0 0 0 0 0 0 0 0 0 0 0 0 0 0 0 0 0 0 0 0
0 0 0 0 0 0 0 0 0 0 0 0 0 0 0 0 0 0 0 0 0 0 0 0 0 0 0 0 0 0 0 0 0 0 0 0 0 0 0 0 0 0 0 0 0 0 0 0 0
0 0 0 0 0 0 0 0 0 0 0 0 0 0 0 0 0 0 0 0 0 0 0 0 0 0 0 0 0 0 0 0 0 0 0 0 0 0 0 0 0 0 0 0 0 0 0 0 0
0 0 0 0 0 0 0 0 0 0 0 0 0 0 0 0 0 0 0 0 0 0 0 0 0 0 0 0 0 0 0 0 0 0 0 0 0 0 0 0 0 0 0 0 0 0 0 0 0
0 0 0 0 0 0 0 0 0 0 0 0 0 0 0 0 0 0 0 0 0 0 0 0 0 0 0 0 0 0 0 0 0 0 0 0 0 0 0 0 0 0 0 0 0 0 0 0 0
0 0 0 0 0 0 0 0 0 0 0 0 0 0 0 0 0 0 0 0 0 0 0 0 0 0 0 0 0 0 0 0 0 0 0 0 0 0 0 0 0 0 0 0 0 0 0 0 0
0 0 0 0 0 0 0 0 0 0 0 0 0 0 0 0 0 0 0 0 0 0 0 0 0 0 0 0 0 0 0 0 0 0 0 0 0 0 0 0 0 0 0 0 0 0 0 0 0
0 0 0 0 0 0 0 0 0 0 0 0 0 0 0 0 0 0 0 0 0 0 0 0 0 0 0 0 0 0 0 0 0 0 0 0 0 0 0 0 0 0 0 0 0 0 0 0 0
0 0 0 0 0 0 0 0 0 0 0 0 0 0 0 0 0 0 0 0 0 0 0 0 0 0 0 0 0 0 0 0 0 0 0 0 0 0 0 0 0 0 0 0 0 0 0 0 0
0 0 0 0 0 0 0 0 0 0 0 0 0 0 0 0 0 0 0 0 0 0 0 0 0 0 0 0 0 0 0 0 0 0 0 0 0 0 0 0 0 0 0 0 0 0 0 0 0
0 0 0 0 0 0 0 0 0 0 0 0 0 0 0 0 0 0 0 0 0 0 0 0 0 0 0 0 0 0 0 0 0 0 0 0 0 0 0 0 0 0 0 0 0 0 0 0 0
0 0 0 0 0 0 0 0 0 0 0 0 0 0 0 0 0 0 0 0 0 0 0 0 0 0 0 0 0 0 0 0 0 0 0 0 0 0 0 0 0 0 0 0 0 0 0 0 0
0 0 0 0 0 0 0 0 0 0 0 0 0 0 0 0 0 0 0 0 0 0 0 0 0 0 0 0 0 0 0 0 0 0 0 0 0 0 0 0 0 0 0 0 0 0 0 0 0
0 0 0 0 0 0 0 0 0 0 0 0 0 0 0 0 0 0 0 0 0 0 0 0 0 0 0 0 0 0 0 0 0 0 0 0 0 0 0 0 0 0 0 0 0 0 0 0 0
0 0 0 0 0 0 0 0 0 0 0 0 0 0 0 0 0 0 0 0 0 0 0 0 0 0 0 0 0 0 0 0 0 0 0 0 0 0 0 0 0 0 0 0 0 0 0 0 0
0 0 0 0 0 0 0 0 0 0 0 0 0 0 0 0 0 0 0 0 0 0 0 0 0 0 0 0 0 0 0 0 0 0 0 0 0 0 0 0 0 0 0 0 0 0 0 0 0
0 0 0 0 0 0 0 0 0 0 0 0 0 0 0 0 0 0 0 0 0 0 0 0 0 0 0 0 0 0 0 0 0 0 0 0 0 0 0 0 0 0 0 0 0 0 0 0 0
0 0 0 0 0 0 0 0 0 0 0 0 0 0 0 0 0 0 0 0 0 0 0 0 0 0 0 0 0 0 0 0 0 0 0 0 0 0 0 0 0 0 0 0 0 0 0 0 0
0 0 0 0 0 0 0 0 0 0 0 0 0 0 0 0 0 0 0 0 0 0 0 0 0 0 0 0 0 0 0 0 0 0 0 0 0 0 0 0 0 0 0 0 0 0 0 0 0
Wind_Speed
6 2 3 3 5 5 2 1 2 2 1 0 2 8 9 10 4 6 3 11 13 8 7 7 9 6 5 7 7 5 5 6 8 9 10 10 11 11 11 10 8 9 11 11 11 12 12 10 9
3 2 4 4 5 3 1 1 2 2 3 3 5 8 10 8 6 5 8 14 10 9 8 7 10 11 11 11 8 4 6 8 10 11 13 13 13 13 12 12 10 11 12 13 13 12 12 11 9
2 2 3 4 4 4 4 2 2 1 0 3 5 6 6 5 6 4 8 10 10 12 10 12 14 13 13 15 14 10 8 8 10 12 14 15 15 14 13 12 11 12 13 14 14 14 12 11 10
2 3 4 4 2 2 5 4 3 3 1 6 9 8 6 6 3 3 7 7 11 12 11 14 19 19 17 16 17 17 15 15 13 13 15 16 15 14 13 13 13 13 14 15 15 15 13 11 11
4 4 4 4 1 0 1 1 3 3 2 4 7 8 5 4 5 4 6 7 8 9 9 11 19 21 21 20 20 20 21 20 18 17 16 17 17 16 16 15 14 14 15 16 16 14 12 11 11
3 3 4 2 2 1 2 1 4 4 4 4 8 8 3 3 5 5 6 6 6 7 8 8 13 17 19 20 23 22 21 20 19 18 18 18 18 19 18 17 16 15 16 16 16 14 12 11 11
3 4 3 3 5 2 1 0 3 4 3 3 3 7 4 2 4 4 6 7 7 7 8 8 7 10 13 16 20 23 25 25 23 20 17 16 16 18 19 18 16 16 16 16 16 14 12 11 12
4 4 2 1 4 2 1 2 4 4 2 2 3 6 4 0 3 5 7 8 8 7 7 7 7 7 7 8 15 19 22 24 24 21 17 15 13 14 16 15 14 16 16 17 17 15 14 13 12
4 5 1 0 2 2 0 2 3 3 6 5 5 4 5 1 3 7 7 8 8 8 7 7 7 8 7 8 12 14 17 19 18 16 18 14 8 9 10 11 14 17 16 17 18 17 16 14 11
4 3 1 0 2 2 1 2 6 5 5 4 4 4 3 4 6 8 7 8 10 10 8 7 7 7 6 6 7 7 8 10 10 9 11 10 11 10 11 11 13 15 16 17 18 18 16 10 6
2 1 1 1 2 3 3 1 2 9 4 7 10 8 4 6 7 8 6 4 4 5 6 6 5 5 4 4 4 4 5 6 8 10 11 9 10 10 11 10 8 8 9 8 10 11 9 7 7
2 2 1 3 3 3 3 3 3 1 4 10 12 10 7 8 6 6 5 4 4 5 6 7 7 6 6 5 4 5 5 5 5 8 11 10 8 10 11 11 13 11 7 7 7 8 10 10 10
1 3 2 1 3 4 4 2 5 3 5 9 9 8 8 7 5 4 3 3 3 3 4 6 6 5 5 5 5 7 6 5 5 5 7 9 9 10 10 10 11 12 12 10 9 10 11 10 11
2 4 6 5 2 4 5 3 3 6 7 8 9 9 8 8 6 4 3 3 4 4 4 5 5 5 6 5 6 7 7 8 8 6 6 8 8 9 10 9 11 11 12 14 14 12 12 12 11
2 4 6 4 3 4 5 3 7 10 11 10 9 9 8 6 5 5 4 3 2 3 3 5 5 5 5 5 7 7 9 9 8 7 6 7 8 11 11 8 8 9 10 12 14 17 13 13 13
1 1 3 4 3 3 4 9 6 10 13 11 9 8 8 6 5 5 4 3 4 4 4 6 6 6 8 7 9 9 10 11 11 9 8 9 11 14 11 9 9 7 9 9 10 12 14 13 13
2 3 4 5 4 3 5 8 5 9 11 11 9 8 7 6 4 4 4 3 4 5 4 5 5 7 10 10 10 9 9 9 9 9 11 14 17 17 14 11 10 8 7 8 8 11 11 14 13
3 4 5 6 4 4 8 10 8 11 10 11 9 8 7 7 6 6 5 3 4 4 4 4 4 7 8 7 7 8 9 9 9 10 11 14 14 17 16 13 12 10 9 8 8 9 12 10 14
3 5 8 10 5 6 13 15 12 16 11 11 10 10 9 8 6 5 4 3 4 5 5 5 7 8 6 6 8 10 12 11 10 10 14 15 16 16 16 14 13 11 10 10 9 8 13 11 9
4 6 9 11 3 5 12 11 10 17 23 22 16 12 10 7 6 5 3 3 4 4 5 7 6 5 4 5 6 7 9 10 11 11 13 15 16 16 16 16 14 13 11 12 9 7 9 11 9
5 6 7 7 4 5 10 11 17 7 13 12 11 12 11 10 8 6 3 2 4 4 4 5 6 5 5 5 6 8 11 12 10 11 12 13 16 17 18 21 18 17 14 11 10 8 9 10 13
7 4 5 4 4 4 4 12 6 6 12 14 14 11 10 8 8 6 4 1 2 3 4 5 6 5 5 5 5 7 10 13 13 12 13 15 15 16 17 20 20 16 13 12 9 10 8 9 11
5 1 3 3 3 5 5 9 9 2 11 16 17 13 10 9 8 6 4 1 2 3 4 5 7 5 4 4 4 6 8 11 12 12 15 15 14 14 15 17 17 16 14 14 12 11 10 8 11
1 2 3 2 2 7 9 11 12 9 12 13 17 14 12 10 8 6 3 2 3 4 4 5 7 5 4 5 5 5 9 12 13 16 16 13 12 11 13 17 17 17 16 15 13 13 11 10 11
2 2 5 5 3 8 2 7 16 11 8 12 21 18 12 10 8 6 4 4 4 5 5 6 6 5 6 6 7 7 10 12 13 14 14 15 14 12 15 17 15 15 17 17 17 13 9 11 12
5 5 5 6 8 11 4 12 10 5 4 4 12 14 11 9 7 7 6 5 5 5 6 6 5 7 8 9 10 9 10 9 10 13 14 15 14 14 18 17 16 17 19 17 17 14 9 10 12
4 6 3 2 3 8 10 9 8 2 1 5 10 11 10 9 8 7 6 5 5 5 6 6 7 10 10 10 11 10 10 11 12 14 15 14 15 15 18 18 17 16 17 18 17 13 14 10 10
2 4 3 2 3 9 15 11 13 9 11 9 11 13 11 9 8 6 5 5 5 5 7 7 7 9 11 11 10 11 12 13 13 14 17 17 17 18 19 19 17 17 18 19 18 14 15 10 8
6 4 4 4 5 6 14 19 8 16 18 19 18 16 13 10 8 6 6 5 4 4 6 7 6 9 11 12 12 13 14 14 15 14 17 18 18 18 19 19 17 16 16 17 17 16 18 13 11
5 10 13 10 11 9 9 22 4 10 12 18 17 14 11 10 8 7 6 4 5 6 7 6 6 9 12 13 13 15 15 16 16 15 17 18 19 19 19 19 18 17 17 17 18 17 18 15 12
Wind_Direction
328 53 89 58 49 62 54 11 83 121 110 137 83 91 80 47 61 106 313 350 338 8 21 15 17 8 324 291 260 227 228 240 250 255 250 240 238 241 245 254 254 260 269 272 272 277 277 275 275
337 51 61 65 81 79 300 288 131 156 163 128 72 64 50 42 18 40 347 329 344 15 17 13 17 10 359 343 318 265 235 249 256 257 259 256 251 249 248 254 251 253 261 268 268 267 270 271 266
344 67 79 79 95 152 179 225 184 159 116 98 87 59 46 339 0 33 319 311 9 15 11 10 12 9 1 351 344 343 311 267 255 258 265 266 259 255 258 255 258 254 257 262 267 267 263 263 261
70 61 58 83 103 161 172 195 165 136 20 79 98 79 72 340 18 340 308 347 22 10 358 3 12 16 14 4 358 353 347 332 308 283 269 267 270 271 265 258 254 254 256 261 261 265 265 259 255
61 82 66 76 104 97 238 174 91 92 66 59 97 107 98 355 357 357 357 9 22 11 351 358 7 14 20 21 13 0 352 342 331 317 300 283 273 268 263 260 255 254 256 260 262 262 263 261 257
56 71 82 119 143 204 263 159 104 79 84 92 102 107 91 351 3 1 22 19 17 12 357 1 5 9 14 17 14 7 0 351 340 331 324 306 287 276 268 262 257 255 256 257 257 258 253 246 247
91 88 133 155 150 185 222 59 93 96 70 43 120 107 115 8 333 11 31 24 19 11 8 359 356 6 9 13 11 8 3 356 348 336 323 315 303 285 270 262 256 255 256 253 250 246 246 245 242
109 96 79 133 150 164 331 62 74 88 95 37 68 130 141 241 334 33 32 26 17 11 12 4 359 4 359 4 6 5 2 356 349 339 325 313 307 298 283 267 257 258 258 255 247 240 237 241 242
87 72 62 4 133 146 340 92 69 35 69 42 37 85 117 118 40 47 33 25 17 9 4 3 7 6 357 2 359 357 357 354 348 342 336 327 314 311 301 280 252 248 250 254 251 240 233 236 238
80 102 200 137 139 160 189 146 154 114 81 84 74 79 88 75 68 63 45 25 13 3 353 358 3 359 352 357 353 348 348 345 338 336 336 335 332 326 314 295 273 258 249 249 251 246 237 231 222
78 160 196 143 155 167 166 150 101 131 170 178 158 152 138 93 78 75 60 36 9 351 347 341 342 340 340 336 338 336 339 338 334 336 338 342 337 337 336 330 308 283 267 258 252 243 233 224 217
338 285 207 180 186 160 164 146 80 120 155 143 147 152 137 105 93 85 71 44 7 359 351 344 340 334 332 331 337 335 337 334 333 335 335 338 343 346 340 338 337 322 290 266 253 242 231 222 219
298 305 315 225 184 140 124 138 127 113 125 126 133 129 121 117 113 109 99 72 26 360 344 334 330 327 330 341 345 343 334 323 317 328 332 333 340 338 332 333 331 325 324 297 257 247 241 231 223
294 296 296 294 231 166 131 153 146 187 161 142 140 141 141 135 134 113 83 62 22 350 337 321 329 328 340 350 349 344 336 332 327 317 319 328 328 322 317 325 324 322 332 334 315 272 246 237 226
321 316 309 269 198 188 124 214 224 166 165 164 164 161 153 144 129 119 115 102 35 352 337 319 341 347 348 352 353 346 339 332 321 307 305 309 314 316 307 308 313 313 317 321 324 317 275 246 232
357 342 301 272 186 181 172 247 217 167 168 175 173 171 163 161 153 141 124 95 47 24 352 324 340 355 1 4 1 350 341 333 325 319 319 316 317 312 298 297 296 293 306 311 318 315 311 272 241
357 270 261 280 218 191 212 251 209 180 180 184 187 182 169 166 167 145 123 92 51 28 356 327 333 4 10 3 356 346 335 328 321 320 323 322 320 313 298 293 289 286 292 295 306 306 305 304 270
263 278 275 258 251 218 243 252 197 198 193 196 193 189 177 178 186 162 140 104 56 27 8 340 346 15 11 357 349 341 334 332 326 322 317 313 310 308 301 292 284 285 279 280 289 301 289 294 304
220 245 255 265 250 236 243 242 207 200 200 205 201 194 186 191 182 159 136 88 41 23 13 349 9 4 355 354 353 345 337 333 325 321 319 318 312 310 308 303 292 282 268 267 272 291 291 285 290
238 262 267 275 258 259 265 256 231 195 209 205 194 191 188 190 180 171 139 68 35 14 9 2 359 331 340 356 347 338 329 321 321 322 318 314 310 310 306 300 299 287 273 269 263 270 279 285 271
245 222 248 264 320 294 288 263 244 213 221 206 194 192 185 183 184 177 155 80 27 11 356 351 337 325 340 354 343 338 330 327 324 320 315 309 309 310 309 299 289 283 276 264 262 262 259 276 281
265 242 255 281 312 303 324 292 251 205 221 204 195 194 185 188 180 165 155 74 5 338 329 334 324 316 336 349 346 337 331 321 314 311 309 308 309 304 298 294 287 286 276 258 256 258 252 258 273
236 267 275 269 265 285 242 252 271 218 236 214 199 190 187 190 177 165 161 198 302 304 309 317 306 300 316 335 340 333 310 303 304 306 305 303 304 298 296 298 306 308 298 275 252 250 230 221 253
302 345 308 12 48 265 229 225 255 206 222 204 199 186 187 185 175 170 176 214 268 286 297 299 282 282 313 339 329 299 295 302 307 308 304 305 306 299 302 301 296 295 296 294 267 249 239 236 248
98 51 324 323 250 252 217 236 259 240 226 199 193 181 184 180 173 179 202 234 257 270 278 289 297 298 331 334 309 295 294 300 299 299 302 306 303 303 302 293 289 293 293 294 286 259 234 237 251
175 164 193 255 274 291 246 246 260 286 297 217 174 168 176 180 179 190 210 229 250 263 275 294 312 327 329 319 309 303 294 291 291 295 299 296 293 299 293 287 291 294 291 294 292 270 230 223 232
180 194 175 216 288 286 258 264 283 84 20 116 146 167 184 187 191 202 217 228 242 258 290 324 335 322 316 313 309 301 295 296 294 297 297 292 290 291 291 293 285 288 295 299 289 287 257 221 219
177 180 142 194 258 277 275 261 243 205 209 191 185 191 195 195 199 213 228 240 251 296 327 322 297 295 304 307 303 301 301 298 295 298 298 295 291 290 293 294 295 295 291 292 291 293 270 238 235
178 193 185 202 194 231 290 282 203 198 201 195 201 195 189 192 196 213 228 238 250 284 278 273 288 304 310 311 309 308 304 301 299 297 297 295 292 288 288 290 288 288 290 290 288 286 286 251 237
212 197 181 199 231 224 242 266 177 211 197 195 201 192 189 188 193 209 219 228 252 269 278 288 303 309 314 315 312 308 305 304 301 299 297 296 294 290 288 289 288 288 284 281 279 279 289 269 237